This demonstration page uses our WeatherBlox Daily Observations layout. Learn more.

Left ArrowRight Arrow

Hourly Observations for January 22, 2016

Temp ( °F °C ) Dew Point ( °F °C ) Humidity (%) Winds ( mph kmh ) Pressure ( in mb ) Visibility ( mi km ) Precip ( " mm )
12:53 am 00:53 Clear 31 -0.6 22 -5.6 69 69 N 7 11 30.32 1027 10 16 0.00 0.00
1:53 am 01:53 Clear 30 -1.1 21 -6.1 69 69 N 8 13 30.31 1026 10 16 0.00 0.00
2:53 am 02:53 Clear 29 -1.7 21 -6.1 72 72 N 6 9 30.30 1026 10 16 0.00 0.00
3:53 am 03:53 Clear 27 -2.8 20 -6.7 75 75 N 8 13 30.30 1026 10 16 0.00 0.00
4:53 am 04:53 Clear 27 -2.8 20 -6.7 75 75 N 7 11 30.31 1027 10 16 0.00 0.00
5:53 am 05:53 Clear 25 -3.9 19 -7.2 78 78 N 7 11 30.33 1027 10 16 0.00 0.00
6:53 am 06:53 Clear 25 -3.9 19 -7.2 78 78 WNW 6 9 30.38 1029 10 16 0.00 0.00
7:53 am 07:53 Sunny 24 -4.4 19 -7.2 81 81 N 5 7 30.41 1030 10 16 0.00 0.00
8:53 am 08:53 Sunny 33 0.6 24 -4.4 70 70 NW 3 6 30.40 1030 10 16 0.00 0.00
9:53 am 09:53 Sunny 43 6.1 24 -4.4 47 47 N 3 6 30.39 1029 10 16 0.00 0.00
10:53 am 10:53 Sunny 48 8.9 25 -3.9 41 41 Calm 30.39 1029 10 16 0.00 0.00
11:53 am 11:53 Sunny 49 9.4 25 -3.9 39 39 VRB 3 6 30.38 1029 10 16 0.00 0.00
12:53 pm 12:53 Sunny 52 11.1 25 -3.9 35 35 Calm 30.34 1027 10 16 0.00 0.00
1:53 pm 13:53 Sunny 53 11.7 24 -4.4 32 32 Calm 30.29 1026 10 16 0.00 0.00
2:53 pm 14:53 Sunny 55 12.8 24 -4.4 30 30 Calm 30.26 1025 10 16 0.00 0.00
3:53 pm 15:53 Sunny 56 13.3 25 -3.9 30 30 S 7 11 30.24 1024 10 16 0.00 0.00
4:53 pm 16:53 Sunny 56 13.3 23 -5 28 28 SE 5 7 30.22 1024 10 16 0.00 0.00
5:53 pm 17:53 Sunny 54 12.2 24 -4.4 31 31 SE 5 7 30.23 1024 10 16 0.00 0.00
6:53 pm 18:53 Clear 49 9.4 23 -5 36 36 ESE 6 9 30.25 1024 10 16 0.00 0.00
7:53 pm 19:53 Clear 46 7.8 23 -5 40 40 SE 7 11 30.27 1025 10 16 0.00 0.00
8:53 pm 20:53 Clear 43 6.1 23 -5 45 45 SE 7 11 30.26 1025 10 16 0.00 0.00
9:53 pm 21:53 Clear 41 5 23 -5 49 49 SSE 6 9 30.24 1024 10 16 0.00 0.00
10:53 pm 22:53 Clear 39 3.9 23 -5 53 53 SE 6 9 30.23 1024 10 16 0.00 0.00
11:53 pm 23:53 Clear 33 0.6 23 -5 66 66 ENE 3 6 30.23 1024 10 16 0.00 0.00

Powered by AerisWeather